sat.trackr.live / text

‹ back to catalog

STARLINK-5586

NORAD 55376 · 2023-013AX

PAYLOAD ACTIVE UNKNOWN

§ Identity

Operator
Country
US
Launch date
2023-01-26
Launch site
AFETR
Launch vehicle
Mass (kg)
RCS (m²)

Purposes: comms

External: N2YO · Heavens-Above · Gunter

§ Orbital elements

Epoch: 2026-09-20T08:39:56.301120Z

Period
94.27 min
Inclination
43.0009°
Eccentricity
0.0001348
Mean motion
15.27576298 rev/d
Perigee alt
482.1 km
Apogee alt
484.0 km
Semi-major
6,861.2 km
B*
7.9393e-6
RAAN
269.4767°
Arg perigee
264.0865°
Mean anomaly
95.9833°
Rev number
20,161

§ Raw data

STARLINK-55861 55376U 23013AX  26263.36106830 -.00000044  00000+0  79393-5 0  99952 55376  43.0009 269.4767 0001348 264.0865  95.9833 15.27576298201611

JSON: /api/v1/satellites/55376 · /tle

For live sub-satellite position, see the globe view (requires WebGL).

§ Visibility from observer

Set your observer location to see the next 7 days of passes ≥ 10°. The values pass through the URL so the page stays shareable.

No JS? Fill the form by hand. The geolocation button needs JavaScript.